This is the latest recevied weather packets stored in our database for station/object HB9TJR-3. If no packets are shown the sender has not sent any weather packets the latest 10 day(s).
| Time | Temp. | Humidity | Pressure | Rain* | Wind** | Luminosity | Snow |
|---|---|---|---|---|---|---|---|
| 1787951971 | 13.89° C | 74% | 869.7 hPa | 0 mm | - | - | - |
| 1787951011 | 14.44° C | 73% | 869.6 hPa | 0 mm | - | - | - |
| 1787950054 | 15° C | 72% | 869.6 hPa | 0 mm | - | - | - |
| 1787950051 | 15° C | 72% | 869.6 hPa | 0 mm | - | - | - |
| 1787949091 | 15° C | 74% | 869.5 hPa | 0 mm | - | - | - |
| 1787948131 | 15° C | 73% | 869.4 hPa | 0 mm | - | - | - |
| 1787947171 | 15° C | 72% | 869.3 hPa | 0 mm | - | - | - |
| 1787946215 | 15° C | 73% | 869.2 hPa | 0 mm | - | - | - |
| 1787946211 | 15° C | 73% | 869.2 hPa | 0 mm | - | - | - |
| 1787945335 | 15.56° C | 71% | 869 hPa | 0 mm | - | - | - |
| 1787945255 | 15.56° C | 71% | 869 hPa | 0 mm | - | - | - |
| 1787945251 | 15.56° C | 71% | 869 hPa | 0 mm | - | - | - |
| 1787943335 | 16.11° C | 72% | 868.8 hPa | 0 mm | - | - | - |
| 1787943331 | 16.11° C | 72% | 868.8 hPa | 0 mm | - | - | - |
| 1787942375 | 16.11° C | 73% | 868.7 hPa | 0 mm | - | - | - |
| 1787942372 | 16.11° C | 73% | 868.7 hPa | 0 mm | - | - | - |
| 1787941411 | 16.11° C | 74% | 868.8 hPa | 0 mm | - | - | - |
| 1787940900 | 15.56° C | 73% | 868.5 hPa | 0 mm | - | - | - |
| 1787940455 | 15.56° C | 73% | 868.5 hPa | 0 mm | - | - | - |
| 1787940451 | 15.56° C | 73% | 868.5 hPa | 0 mm | - | - | - |
| 1787939491 | 15.56° C | 73% | 868.3 hPa | 0 mm | - | - | - |
| 1787938535 | 16.11° C | 77% | 868.4 hPa | 0 mm | - | - | - |
| 1787938531 | 16.11° C | 77% | 868.4 hPa | 0 mm | - | - | - |
| 1787936614 | 16.67° C | 75% | 868.1 hPa | 0 mm | - | - | - |
| 1787936611 | 16.67° C | 75% | 868.1 hPa | 0 mm | - | - | - |
* Rain latest hour (hover to see other rain measurements)
** Current wind speed in m/s (hover to see current wind gust speed)